Location: Risskov
(56.1972°N, 10.2480°E)
Time: 13:49:22
(UTC+00:00)

Envisat - Visible Passes

Search period start: 01 December 2022 00:00
Search period end: 11 December 2022 00:00
Orbit: 763 x 765 km, 98.2° (Epoch: 30 November)

Date Brightness Start Highest point End Pass type
(mag) Time Alt. Az. Time Alt. Az. Time Alt. Az.
01 Dec 5.5 02:15:39 10° NE 02:18:16 17° ENE 02:18:16 17° ENE visible
01 Dec 3.0 03:53:38 10° NNE 03:58:26 78° NE 03:58:26 78° NE visible
01 Dec 4.1 05:33:20 10° N 05:37:15 23° NW 05:38:37 20° WNW visible
02 Dec 4.0 03:16:44 10° NNE 03:20:50 43° ENE 03:20:50 43° ENE visible
02 Dec 3.4 04:55:57 10° N 05:00:36 37° WNW 05:01:00 37° WNW visible
02 Dec 4.8 06:37:16 10° NNW 06:38:20 11° NW 06:39:25 10° NW visible
02 Dec 5.9 16:21:42 10° WSW 16:24:03 13° W 16:26:24 10° NW visible
03 Dec 5.1 02:40:06 10° NE 02:43:13 24° ENE 02:43:13 24° ENE visible
03 Dec 3.0 04:18:44 10° NNE 04:23:24 63° NW 04:23:24 63° NW visible
03 Dec 4.4 05:58:49 10° N 06:01:58 17° NW 06:03:34 15° WNW visible
03 Dec 5.5 15:42:26 10° SW 15:46:30 24° W 15:50:37 10° NW visible
04 Dec 5.8 02:04:10 10° NE 02:05:37 13° ENE 02:05:37 13° ENE visible
04 Dec 3.5 03:41:41 10° NNE 03:45:48 55° NE 03:45:48 55° NE visible
04 Dec 3.9 05:21:14 10° N 05:25:26 27° NW 05:25:58 26° WNW visible
05 Dec 4.6 03:04:51 10° NNE 03:08:12 32° ENE 03:08:12 32° ENE visible
05 Dec 3.3 04:43:54 10° N 04:48:23 43° NW 04:48:23 43° NW visible
05 Dec 4.7 06:24:36 10° NNW 06:26:36 12° NW 06:28:33 10° WNW visible
05 Dec 5.8 16:08:48 10° WSW 16:11:54 16° W 16:15:00 10° NW visible
06 Dec 5.4 02:28:22 10° NE 02:30:37 19° ENE 02:30:37 19° ENE visible
06 Dec 3.3 04:06:44 10° NNE 04:10:48 56° N 04:10:48 56° N visible
06 Dec 4.3 05:46:38 10° N 05:50:10 19° NW 05:50:58 19° WNW visible
06 Dec 5.2 15:30:02 10° SSW 15:34:26 29° W 15:38:51 10° NNW visible
07 Dec 6.0 01:53:00 10° ENE 01:53:03 10° ENE 01:53:03 10° ENE visible
07 Dec 4.1 03:29:45 10° NNE 03:33:13 40° NE 03:33:13 40° NE visible
07 Dec 3.7 05:09:09 10° N 05:13:24 31° NW 05:13:24 31° NW visible
07 Dec 6.3 16:37:01 10° W 16:37:23 10° W 16:37:45 10° WNW visible
08 Dec 5.0 02:53:00 10° NNE 02:55:39 25° NE 02:55:39 25° NE visible
08 Dec 3.4 04:31:52 10° N 04:35:49 45° NNW 04:35:49 45° NNW visible
08 Dec 4.6 06:12:14 10° NNW 06:14:50 14° NW 06:16:00 13° WNW visible
08 Dec 5.7 15:56:09 10° SW 15:59:46 19° W 16:03:24 10° NW visible
09 Dec 5.7 02:16:42 10° NE 02:18:06 14° ENE 02:18:06 14° ENE visible
09 Dec 3.7 03:54:46 10° NNE 03:58:16 45° NNE 03:58:16 45° NNE visible
09 Dec 4.1 05:34:29 10° N 05:38:22 22° NW 05:38:27 22° NW visible
10 Dec 4.5 03:17:50 10° NNE 03:20:43 31° NE 03:20:43 31° NE visible
10 Dec 3.7 04:57:05 10° N 05:00:54 34° NW 05:00:54 34° NW visible
10 Dec 4.8 06:38:38 10° NNW 06:39:26 10° NW 06:40:14 10° NW visible
10 Dec 6.0 16:23:02 10° WSW 16:25:13 13° W 16:27:23 10° NW visible
